Weather in Al Ghaydah

Yemen     16°12′36″N   52°10′57″E
temp.,
°C
wind,
m/s
gust,
m/s
humid.,
%
clouds,
%
prec.,
mm/h
press.,
hPa
HPBL,
m
8 may, sat
sat800:00+29ese457585 0.0 1010415
03:00+28e337570 0.0 1008166
06:00+28ne11784 0.0 1010133
09:00+31sse11581 0.0 1011618
12:00+33sse42495 0.0 1008657
15:00+31sse87665 0.0 1005309
18:00+29se89725 0.0 1007347
21:00+29se677428 0.0 1008377
9 may, sun
sun900:00+29se567893 0.0 1007403
03:00+28se4578100 0.0 1006232
06:00+28se2377100 0.0 1008293
09:00+30se3365100 0.0 1009586
12:00+31se5464100 0.0 1007601
15:00+30se7768100 0.0 1006605
18:00+29se77745 0.0 1007606
21:00+29se6775100 0.0 1009671
10 may, mon
mon1000:00+28se5674100 0.0 1008725
03:00+28se45747 0.0 1007343
06:00+28ese33726 0.0 1009516
09:00+30se4365100 0.0 1010742
12:00+31se5459100 0.0 1008598
15:00+30se666361 0.0 1006538
18:00+29se677212 0.0 1007463
21:00+29se677591 0.0 1009484
11 may, tue
tue1100:00+28se5674100 0.0 1008516
03:00+28ese4674100 0.0 1007332
06:00+28ese3472100 0.0 1009563
09:00+30se4461100 0.0 1010718
12:00+31se5458100 0.0 1008602
15:00+31se6661100 0.0 1006495
18:00+29ese566878 0.0 1007366
21:00+29ese557281 0.0 1008356
12 may, wed
wed1200:00+29se5673100 0.0 1008338
03:00+28se34734 0.0 1007171
06:00+28ese127180 0.0 1008203
09:00+31sse225417 0.0 1008635
12:00+32se43470 0.0 1006578
15:00+31sse6558100 0.0 1005494
18:00+30se677162 0.0 1005320
21:00+29ese677568 0.0 1006393